Regional Weather Roundup
Issued by NWS San Diego, CA

Home | Current Version | Previous Version | Text Only | Print | Product List | Glossary On
Versions: 1 2 3 4 5 6 7 8 9 10 11 12 13 14 15 16 17 18 19 20 21 22 23 24 25 26 27 28 29 30 31 32 33 34 35 36 37 38 39 40 41 42 43 44
000
ASUS46 KSGX 250211
RWRSGX

SAN DIEGO HOURLY WEATHER ROUNDUP
NATIONAL WEATHER SERVICE SAN DIEGO CA
600 PM PST FRI NOV 24 2017

NOTE: "FAIR" INDICATES FEW OR NO CLOUDS BELOW 12,000 FEET WITH NO
SIGNIFICANT WEATHER AND/OR OBSTRUCTIONS TO VISIBILITY.

CAZ042-043-060-061-PZZ750-775-250300-

GREATER SAN DIEGO AREA

CITY           SKY/WX    TMP DP  RH WIND       PRES   REMARKS
SAN DIEGO AP   PTCLDY    69  61  75 CALM      29.88S
NATIONAL CITY    N/A     68  63  84 CALM      29.89S
CHULA VISTA      N/A     67  63  88 CALM      29.80R
IMPERIAL BEACH PTCLDY    59  57  93 S3        29.89R
BROWN FIELD    CLEAR     67  61  81 NW3       29.89R
MIRAMAR MCAS   PTCLDY    64  48  56 CALM      29.88R
MONTGOMERY FLD CLEAR     70  48  45 CALM      29.88R

$$

NORTH SAN DIEGO COUNTY

CITY           SKY/WX    TMP DP  RH WIND       PRES   REMARKS
CAMP PENDLETON CLEAR     64  42  44 CALM      29.87R
OCEANSIDE AP   CLEAR     59  47  64 CALM      29.86R
OCEANSIDE HBR    N/A     64  56  75 CALM      29.89R
VISTA            N/A     68  48  50 CALM      29.84R
CARLSBAD       CLEAR     67  52  58 CALM      29.87R
DEL MAR          N/A     66  55  67 CALM      29.89R
LA JOLLA SCRIP   N/A     68  50  52 NE1       29.87R
FALLBROOK        N/A     70  43  37 CALM      29.87S
ESCONDIDO        N/A     73  45  36 CALM      29.88R
SAN MARCOS       N/A     72  45  37 CALM      29.89R
POWAY            N/A     69  48  45 CALM      29.89R

$$

EAST SAN DIEGO COUNTY

CITY           SKY/WX    TMP DP  RH WIND       PRES   REMARKS
RAMONA         CLEAR     66  38  35 CALM      29.92R
SANTEE LAKES     N/A     75  47  37 CALM      29.85R
LA MESA          N/A     70  50  49 CALM      29.80R
JAMUL            N/A     69  44  39 CALM      29.88R
MT. LAGUNA OBS   N/A     63  20  19 W7        29.84R
CAMPO            N/A     66  33  29 NE3       29.95R

$$

ORANGE COUNTY AND THE LOS ANGELES BASIN

CITY           SKY/WX    TMP DP  RH WIND       PRES   REMARKS
JOHN WAYNE AP  PTCLDY    69  58  67 CALM      29.86R
LAGUNA BEACH     N/A     64  49  57 CALM      29.81S
LAKE FOREST FR   N/A     72  40  31 CALM      29.75R
HUNTINGTON BCH   N/A     63  59  86 CALM      29.87R
LOS ALAMITOS   PTCLDY    66  60  80 CALM      29.86R
FULLERTON      PTCLDY    71  54  54 CALM      29.85S
LONG BEACH     PTCLDY    70  57  63 SE3       29.86R
L.A. AP        PTCLDY    72  54  53 VRB3      29.86R
L.A. DOWNTOWN  PTCLDY    72  53  51 CALM      29.85R

$$

THE INLAND EMPIRE

CITY           SKY/WX    TMP DP  RH WIND       PRES   REMARKS
CORONA         CLEAR     68  44  42 CALM      29.88R
CHINO          CLEAR     73  44  35 CALM      29.88R
ONTARIO        PTCLDY    76  42  29 W5        29.88R
SAN BERNARDINO PTCLDY    79  39  24 CALM      29.89R
RIVERSIDE AP   CLEAR     76  43  30 CALM      29.88R
MORENO VALLEY    N/A     76  46  35 CALM      28.02S
MARCH ARB      CLEAR     66  39  36 W5        29.91R
HORSETHIEF CYN   N/A     71  35  27 W2        29.88R
PERRIS           N/A     78  45  31 SW2         N/A
HEMET EAST       N/A     74  32  20 CALM      29.93R
FRENCH VALLEY  FAIR      73  36  25 CALM      29.91R
TEMECULA         N/A     76  42  29 S2        29.93R

$$

SAN BERNARDINO AND RIVERSIDE COUNTY MOUNTAINS

CITY           SKY/WX    TMP DP  RH WIND       PRES   REMARKS
BIG BEAR AP    CLEAR     50  27  40 CALM      30.22R

$$

SOUTHERN DESERT INCLUDING THE COACHELLA VALLEY

CITY           SKY/WX    TMP DP  RH WIND       PRES   REMARKS
PALM SPRINGS   CLEAR     78  45  30 CALM      29.87R
THOUSAND PALMS   N/A     75  44  32 CALM      29.82R
PALM DESERT      N/A     76  51  41 CALM      31.99S
THERMAL        CLEAR     65  46  50 W6        29.82R
BLYTHE         CLEAR     73  41  31 CALM      29.85R
IMPERIAL AP    CLEAR     74  44  34 CALM      29.82R
EL CENTRO NAS  PTCLDY    73  45  36 NE5       29.84R
YUMA AZ        PTCLDY    74  46  36 W3        29.84R

$$

UPPER DESERT

CITY           SKY/WX    TMP DP  RH WIND       PRES   REMARKS
VICTORVILLE AP PTCLDY    70  28  21 CALM      29.98R
HESPERIA         N/A     71  34  25 W1        30.00R
PALMDALE       PTCLDY    70  34  26 S3        29.97R
LANCASTER      PTCLDY    71  34  25 W7        29.97R
EDWARDS AFB    PTCLDY    74  35  24 W14       29.92R
DAGGETT        PTCLDY    69  34  27 CALM      29.93R
29 PALMS N     CLEAR     71  29  21 S8        30.00R
NEEDLES        CLEAR     73  34  23 W7        29.89R

$$

REGIONAL REPORTS

CITY           SKY/WX    TMP DP  RH WIND       PRES   REMARKS
SANTA BARBARA  PTCLDY    60  58  92 S3        29.84S
SANDBERG       PTCLDY    61  38  42 NW22      30.09S
LAS VEGAS NV   PTCLDY    69  38  32 S3        29.96S
PHOENIX AZ     CLEAR     78  36  21 VRB5      29.87R
ENSENADA NW      N/A     69  32  25 CALM      29.80R

$$

OFFSHORE ISLANDS

CITY           SKY/WX    TMP DP  RH WIND       PRES   REMARKS
CATALINA ARPT  CLEAR     77  41  27 W5        29.93S
SAN NICOLAS IS CLEAR     69  24  18 W8        29.87R

$$

MARINE AND OFFSHORE BUOY REPORTS

STATION/POSITION SKY/WX   TEMP    WIND        PRES    VSBY  SWELL
                          AIR SEA DIR/SP/G                  HT/PER/DIR
                          (F)     (DEG/KT/KT) (MB)    (MI)  (FT/S/D)
TANNER BANKS               63 63              1011.2R
S CLEMENTE BASIN           66 67  220/  4/  6 1010.8          5/250/14
SAN NICOLAS IS.               63                N/A           3/290/13
SO. S. ROSA ISLA           63 61  320/ 10/ 12 1011.3R         5/290/13
W. S. BARBARA CH           62     310/ 17/ 21 1010.3
M. S. BARBARA CH           62     230/  6/  8 1011.4
S. MONICA BASIN               63  270/  2/  4 1010.7R         3/270/ 9
S PEDRO CHANNEL               66                N/A           2/270/11
CMP PENDLETON NS              64                N/A           2/250/11
OCEANSIDE OFFSHR              65                N/A           2/240/13
TORREY PINES OTR              66                N/A           2/260/13
SAN DIEGO BAY                 67              1012.1R
POINT LOMA SOUTH              64                N/A           3/250/15

$$





USA.gov is the U.S. government's official web portal to all federal, state and local government web resources and services.